Location: Kalberh�ni
(46.4610°N, 7.2453°E)
Time: 21:50:43
(UTC+00:00)

Cosmos 1802 Rocket - Pass Details

Date: 29 October 2021
Orbit: 955 x 1010 km, 82.9° (Epoch: 30 November)

Event Time Altitude Azimuth Distance (km) Brightness Sun altitude
Rises 17:17:04 0° 143° (SE) 3,621 6.7 -10.3°
Reaches altitude 10° 17:20:09 10° 128° (SE) 2,681 5.9 -10.8°
Maximum altitude 17:24:33 21° 82° (E) 2,004 5.0 -11.6°
Drops below altitude 10° 17:28:59 10° 35° (NE) 2,706 5.9 -12.3°
Sets 17:32:05 0° 21° (NNE) 3,665 6.7 -12.8°
